Regional Weather Roundup
Issued by NWS

Home | Current Version | Previous Version | Graphics & Text | Print | Product List | Glossary On
Versions: 1 2 3 4 5 6 7 8 9 10 11 12 13 14 15 16 17 18 19 20 21 22 23 24 25 26 27 28 29 30 31 32 33 34 35 36 37 38 39 40 41 42 43 44 45 46 47 48 49 50
000
ASUS43 KFSD 010010
RWRSD

WEATHER ROUNDUP FOR SOUTH DAKOTA
NATIONAL WEATHER SERVICE SIOUX FALLS SD
700 PM CDT TUE SEP 30 2014

NOTE: "FAIR" INDICATES FEW OR NO CLOUDS BELOW 12,000 FEET WITH NO
SIGNIFICANT WEATHER AND/OR OBSTRUCTIONS TO VISIBILITY.


SDZ001>005-009-010-012>017-010100-
NORTHWEST AND NORTH CENTRAL SOUTH DAKOTA

CITY           SKY/WX    TMP DP  RH WIND       PRES   REMARKS
BUFFALO          N/A     55  52  89 W25G31    29.46R
FAITH            N/A     57  52  83 W23G37    29.49R
MOBRIDGE       CLOUDY    63  53  70 SW20G36   29.40R
$$

SDZ012>016-024>037-041>051-057-063-072>074-010100-
SOUTHWEST AND SOUTH CENTRAL SOUTH DAKOTA

CITY           SKY/WX    TMP DP  RH WIND       PRES   REMARKS
RAPID CTY ARPT MOCLDY    65  44  46 W8        29.60R
PIERRE         PTCLDY    65  52  62 SW20      29.52R
CUSTER         PTCLDY    52  39  61 W16G24    29.69R
ELLSWORTH AFB  CLOUDY    64  44  48 NW21G28   29.60R
PHILIP         MOCLDY    64  48  56 W16G28    29.57R
PINE RIDGE     PTCLDY    60  48  64 SW6       29.66R
WINNER         FAIR      72  46  39 W18G26    29.60R
$$

SDZ004>011-016>023-039-040-010100-
NORTHEAST SOUTH DAKOTA

CITY           SKY/WX    TMP DP  RH WIND       PRES   REMARKS
ABERDEEN       CLOUDY    66  59  78 SE17      29.51R
WATERTOWN      CLOUDY    63  58  83 SE28G43   29.61F
SISSETON         N/A     56  52  86 S20       29.63F
$$

SDZ017-020-022-023-036>040-048>070-010100-
SOUTHEAST SOUTH DAKOTA

CITY           SKY/WX    TMP DP  RH WIND       PRES   REMARKS
SIOUX FALLS    CLOUDY    66  61  84 S20G26    29.71S
HURON          CLOUDY    73  46  38 S14G21    29.56S
CHAMBERLAIN    PTCLDY    69  48  46 SW13      29.58S
MITCHELL       MOCLDY    74  61  63 S20G30    29.60S
YANKTON        CLEAR     68  61  77 SE16G23   29.69R
$$

ABBREVIATIONS USED IN REMARKS
   TC - TEMPERATURE IN CELSIUS
  WCI - WIND CHILL INDEX
   HX - HEAT INDEX
  VSB - VISIBILITY



USA.gov is the U.S. government's official web portal to all federal, state and local government web resources and services.